Regional Weather Roundup
Issued by NWS Kansas City/Pleasant Hill, MO

Home | Current Version | Previous Version | Graphics & Text | Print | Product List | Glossary Off
Versions: 1 2 3 4 5 6 7 8 9 10 11 12 13 14 15 16 17 18 19 20 21 22 23 24 25 26 27 28 29 30 31 32 33 34 35 36 37 38 39 40 41 42 43 44 45 46 47 48 49 50

000
ASUS43 KEAX 282104
RWREAX

WEATHER ROUNDUP FOR EASTERN KANSAS AND NORTHWEST MISSOURI
NATIONAL WEATHER SERVICE KANSAS CITY/PLEASANT HILL MO
400 PM CDT MON JUL 28 2014

KSZ040-057-103>105-MOZ028-029-037-043-282200-
...KANSAS CITY METROPOLITAN AREA...

CITY           SKY/WX    TMP DP  RH WIND       PRES   REMARKS
K.C. INTL      PTSUNNY   78  60  53 N10       30.19F
K.C. DOWNTOWN  PTSUNNY   79  58  48 N9        30.17F
LEES SUMMIT    PTSUNNY   80  58  46 N13       30.19F
OLATHE - IXD   MOSUNNY   78  57  48 NW8G17    30.20F
OLATHE - OJC   MOSUNNY   79  56  45 NW9       30.18F
LAWRENCE       MOSUNNY   82  58  43 N9        30.19F

$$

MOZ001>008-011>017-020>025-030>033-038>040-044>046-053-054-282200-
...NORTHERN AND CENTRAL MISSOURI...

CITY           SKY/WX    TMP DP  RH WIND       PRES   REMARKS
ST. JOSEPH     PTSUNNY   77  62  59 N8        30.20F
MOSBY          PTCLDY    77  59  53 NW7       30.18F
WHITEMAN AFB   MOSUNNY   79  48  33 N13       30.16S
CLINTON        PTSUNNY   81  61  50 N13       30.16F
SEDALIA        MOSUNNY   82  61  48 N14       30.16F
WARSAW         NOT AVBL
MARSHALL       MOSUNNY   81  63  54 N12       30.17F
CHILLICOTHE      N/A     80  56  43 N9        30.19F
KIRKSVILLE     MOSUNNY   77  56  48 N15G21    30.18F

$$

MOZ041-047>049-056>058-063>065-088>090-097-282200-
...EASTERN AND SOUTHERN MISSOURI...

CITY           SKY/WX    TMP DP  RH WIND       PRES   REMARKS
ST. LOUIS INTL PTSUNNY   78  60  53 N17       30.11S
SPIRIT OF STL  CLOUDY    77  58  51 N13       30.10S
COLUMBIA       MOSUNNY   79  58  48 NW16      30.14F
JEFFERSON CITY MOSUNNY   79  57  46 NW10      30.12F
ROLLA          MOSUNNY   80  57  45 N15       30.11F
LEBANON        SUNNY     81  55  41 NW12G17   30.14F
OSAGE BEACH    PTSUNNY   79  55  44 NW7       30.13F
SPRINGFIELD    SUNNY     83  57  41 NW13      30.15F
BRANSON        MOSUNNY   86  54  32 NW14G23   30.15F
NEVADA         MOSUNNY   79  59  50 N9        30.18F
JOPLIN         SUNNY     86  54  33 NW9G20    30.16F
WEST PLAINS    MOSUNNY   81  58  45 NW8       30.12F
MALDEN         MOSUNNY   84  63  48 NW10      30.05F

$$

IAZ060-094-KSZ022-034>040-054-083-096-NEZ052-066-093-282200-
...KANSAS...SOUTHEAST NEBRASKA AND IOWA...

CITY           SKY/WX    TMP DP  RH WIND       PRES   REMARKS
TOPEKA         MOSUNNY   85  56  37 NW12      30.20F
MANHATTAN      SUNNY     85  54  34 VRB5      30.20F
EMPORIA        SUNNY     85  51  31 N10G18    30.19F
CHANUTE        SUNNY     84  58  40 N10G18    30.18F
WICHITA        MOSUNNY   86  59  39 NW5       30.21F
OMAHA          MOSUNNY   78  54  43 N8        30.22F
LINCOLN        MOSUNNY   78  52  40 N14       30.25F
FALLS CITY     MOSUNNY   78  57  48 NW8       30.21F
LAMONI         MOSUNNY   75  55  49 MISG      30.20F
DES MOINES     CLOUDY    73  57  57 W8        30.18F

$$



USA.gov is the U.S. government's official web portal to all federal, state and local government web resources and services.